#timestamp,LO_Frequency,Hit,StdDev 
1557187215.2,286047003.1,N
1557187235.0,286046999.8,N
1557187235.9,286046999.8,N
1557187255.8,286047002.5,N
1557187275.6,286047000.7,N
1557187295.5,286046998.2,N
1557187315.8,286046999.7,N
1557187335.6,286047001.2,N
1557187355.4,286046999.9,N
1557187375.3,286047002.8,N
1557187395.1,286047002.1,N
1557187396.0,286047002.1,N
1557187415.8,286047002.3,N
1557187435.7,286047000.9,N
1557187455.5,286047001.1,N
1557187475.4,286046998.2,N
1557187495.2,286046999.4,N
1557187515.0,286046998.1,N
1557187515.9,286046998.1,N
1557187535.8,286046998.5,N
1557187555.6,286047002.8,N
1557187575.4,286046999.8,N
1557187595.3,286047002.8,N
1557187615.1,286047001.0,N
1557187635.9,286046999.8,N
1557187655.7,286047000.1,N
1557187675.5,286047000.6,N
1557187695.4,286047000.3,N
1557187715.2,286047000.6,N
1557187735.0,286047000.0,N
1557187735.9,286047000.0,N
1557187755.8,286047000.5,N
1557187775.6,286047002.7,N
1557187795.5,286047001.0,N
1557187815.3,286047002.6,N
1557187835.1,286047001.4,N
1557187855.9,286047005.6,Y
1557187875.7,286047003.4,P
1557187895.5,286047003.9,N
1557187915.4,286047001.3,N
1557187935.2,286047001.5,N
1557187955.1,286047003.9,Y
1557187956.0,286047003.9,P
1557187975.8,286047001.0,N
1557187995.6,286047000.0,N
1557188015.5,286047001.5,N
1557188035.3,286047001.4,N
1557188055.1,286047002.8,N
1557188075.9,286047000.1,N
1557188095.7,286047000.7,N
1557188115.6,286047001.0,N
1557188135.4,286046999.8,N
1557188155.2,286046999.8,N
1557188175.1,286047002.2,N
1557188176.0,286047002.2,N
1557188195.8,286047001.5,N
1557188215.6,286047001.5,N
1557188235.5,286046999.9,N
1557188255.3,286047001.0,N
1557188275.2,286047000.2,N
1557188295.9,286047000.5,N
1557188315.7,286047000.8,N
1557188335.6,286046999.8,N
1557188355.4,286047004.1,Y
1557188375.3,286047002.0,P
1557188395.1,286046999.8,N
1557188396.0,286046999.8,N
1557188415.8,286047002.2,N
1557188435.7,286047001.4,N
1557188455.5,286047003.8,Y
1557188475.3,286047000.5,P
1557188495.2,286047003.9,P
1557188515.0,286047003.5,N
1557188515.9,286047003.5,N
1557188535.8,286047001.3,N
1557188555.6,286047000.2,N
1557188575.4,286047000.5,N
1557188595.3,286047004.4,Y
1557188615.1,286047002.1,P
1557188635.8,286046999.7,N
1557188655.7,286046999.9,N
1557188675.5,286047001.1,N
1557188695.4,286047001.9,N
1557188715.2,286046999.7,N
1557188735.0,286047000.4,N
1557188735.9,286047000.4,N
1557188755.8,286047002.1,N
1557188775.6,286047000.2,N
1557188795.4,286047002.3,N
1557188815.3,286047000.3,N
1557188835.1,286047000.4,N
1557188855.9,286047000.5,N
1557188875.7,286047002.1,N
1557188895.5,286047000.2,N
1557188915.4,286047002.8,Y
1557188935.2,286047002.8,P
1557188955.0,286047000.2,N
1557188955.9,286047000.2,N
1557188975.8,286046998.1,N
1557188995.6,286046996.6,N
1557189015.5,286046997.4,N
1557189035.3,286046997.1,N
1557189055.1,286046997.7,N
1557189075.9,286046997.6,N
1557189095.7,286046996.2,N
1557189115.5,286046995.6,N
1557189135.4,286046997.3,N
1557189155.2,286046998.1,N
1557189175.1,286047000.1,N
1557189176.0,286047000.1,N
1557189195.8,286046999.9,N
1557189215.6,286047000.3,N
1557189235.5,286046999.4,N
1557189255.3,286046998.4,N
1557189275.1,286046996.7,N
1557189295.9,286047000.8,N
1557189315.7,286046999.8,N
1557189335.6,286047000.6,N
1557189355.4,286047000.2,N
1557189375.2,286047000.1,N
1557189395.1,286047002.1,N
1557189396.0,286047002.1,N
1557189415.8,286046999.8,N
1557189435.7,286046998.6,N
1557189455.5,286046996.6,N
1557189475.3,286046999.1,N
1557189495.2,286046998.4,N
1557189515.9,286046996.7,N
1557189535.7,286046997.7,N
1557189555.6,286046997.3,N
1557189575.4,286046997.8,N
1557189595.3,286046997.2,N
1557189615.1,286046995.8,N
1557189616.0,286046995.8,N
1557189635.8,286046997.9,N
1557189655.7,286046995.3,N
1557189675.5,286046994.9,N
1557189695.3,286046997.4,N
1557189715.2,286046998.5,N
1557189735.0,286046999.4,N
1557189735.9,286046999.4,N
1557189755.8,286046999.9,N
1557189775.6,286046999.7,N
1557189795.4,286046999.2,N
1557189815.3,286046997.4,N
1557189835.1,286046997.6,N
1557189855.9,286046995.1,N
1557189875.7,286046997.5,N
1557189895.5,286046995.1,N
1557189915.4,286046999.2,N
1557189935.2,286047000.6,N
1557189955.0,286047000.7,N
1557189956.0,286047000.7,N
1557189975.8,286047000.0,N
1557189995.6,286047001.5,N
1557190015.5,286047001.5,N
1557190035.3,286047003.8,N
1557190055.1,286047002.5,N
1557190075.9,286047001.9,N
1557190095.7,286046999.9,N
1557190115.6,286047002.2,N
1557190135.4,286046998.5,N
1557190155.2,286046999.4,N
1557190175.1,286046997.4,N
1557190176.0,286046997.4,N
1557190195.8,286046996.6,N
1557190215.6,286046997.6,N
1557190235.5,286047000.8,N
1557190255.3,286046998.2,N
1557190275.2,286047001.0,N
1557190295.9,286046998.8,N
1557190315.7,286047000.2,N
1557190335.6,286047002.6,N
1557190355.4,286046999.5,N
1557190375.2,286046999.1,N
1557190395.1,286047000.9,N
1557190396.0,286047000.9,N
1557190415.8,286046998.8,N
1557190435.7,286046999.6,N
1557190455.5,286046997.9,N
1557190475.3,286046996.6,N
1557190495.2,286046997.4,N
1557190515.0,286046998.5,N
1557190515.9,286046998.5,N
1557190535.7,286047000.6,N
1557190555.6,286047001.6,N
1557190575.4,286047003.5,N
1557190595.3,286047001.8,N
1557190615.1,286047002.5,N
1557190616.0,286047002.5,N
1557190635.8,286047002.5,N
1557190655.7,286047001.3,N
1557190675.5,286046999.7,N
1557190695.3,286047004.3,N
1557190715.2,286047003.7,N
1557190735.0,286047002.9,N
1557190735.9,286047002.9,N
1557190755.8,286047007.3,Y
1557190775.6,286047002.9,P
1557190795.4,286047001.4,N
